Doylestown, PA

9:39 PM EDT on March 22, 2017 (GMT -0400)
Doylestown

Weather History for KDYL - August, 2013

Change the Weather History Date:

Wednesday, August 14, 2013

  Actual Average (KTTN) Record (KTTN)
Temperature  
Mean Temperature 64 °F -  
Max Temperature 73 °F 82 °F 99 °F (2002)
Min Temperature 55 °F 64 °F 53 °F (1983)
Degree Days  
Heating Degree Days 1    
Growing Degree Days 14 (Base 50)    
Moisture  
Dew Point 51 °F    
Average Humidity 64    
Maximum Humidity 90    
Minimum Humidity 46    
Precipitation  
Precipitation 0.00 in - - ()
Sea Level Pressure  
Sea Level Pressure 29.91 in    
Wind  
Wind Speed 7 mph (NW)    
Max Wind Speed 16 mph    
Max Gust Speed 29 mph    
Visibility 10 miles    
Events      
Averages and records for this station are not official NWS values.
T = Trace of Precipitation, MM = Missing Value Source: NWS Daily Summary

Daily Weather History Graph

Daily Weather History Graph

Search for Another Location

Airport or City:

Trip Planner

Search our weather history database for the weather conditions in past years. The results will help you decide how hot, cold, wet, or windy it might be!

Date:

Astronomy

Aug. 14, 2013 Rise Set
Actual Time 6:10 AM EDT 7:58 PM EDT
Civil Twilight 5:41 AM EDT 8:27 PM EDT
Nautical Twilight 5:05 AM EDT 9:03 PM EDT
Astronomical Twilight 4:27 AM EDT 9:41 PM EDT
Moon 2:08 PM EDT (8/14) No Moon Set
Length of Visible Light 14h 46m
Length of Day
13h 48m
First Quarter, 52% of the Moon is Illuminated
Aug 14
First Quarter
Aug 20
Full
Aug 28
Last Quarter
Sep 5
New
Sep 12
First Quarter

Hourly Weather History & Observations

Time (EDT) Temp. Dew Point Humidity Pressure Visibility Wind Dir Wind Speed Gust Speed Precip Events Conditions
12:54 AM 69.1 °F 64.0 °F 84% 29.78 in 10.0 mi North 5.8 mph - N/A   Mostly Cloudy
1:54 AM 66.0 °F 62.1 °F 87% 29.80 in 10.0 mi North 5.8 mph - N/A   Clear
2:54 AM 63.0 °F 55.0 °F 75% 29.81 in 10.0 mi North 5.8 mph - N/A   Clear
3:54 AM 61.0 °F 51.1 °F 70% 29.81 in 10.0 mi NNW 4.6 mph - N/A   Clear
4:54 AM 57.9 °F 48.0 °F 70% 29.82 in 10.0 mi NNW 4.6 mph - N/A   Clear
5:54 AM 57.0 °F 46.9 °F 69% 29.84 in 10.0 mi NNW 6.9 mph - N/A   Clear
6:54 AM 55.9 °F 46.9 °F 72% 29.87 in 10.0 mi WNW 3.5 mph - N/A   Clear
7:54 AM 59.0 °F 46.9 °F 64% 29.87 in 10.0 mi WNW 5.8 mph - N/A   Clear
8:54 AM 62.1 °F 48.0 °F 60% 29.89 in 10.0 mi NW 10.4 mph 16.1 mph N/A   Clear
9:54 AM 64.0 °F 48.0 °F 56% 29.89 in 10.0 mi NW 11.5 mph 21.9 mph N/A   Clear
10:54 AM 66.0 °F 50.0 °F 56% 29.91 in 10.0 mi WNW 12.7 mph 18.4 mph N/A   Partly Cloudy
11:54 AM 68.0 °F 48.9 °F 50% 29.91 in 10.0 mi NW 16.1 mph 26.5 mph N/A   Scattered Clouds
12:54 PM 70.0 °F 50.0 °F 49% 29.92 in 10.0 mi NNW 12.7 mph 28.8 mph N/A   Scattered Clouds
1:54 PM 71.1 °F 51.1 °F 49% 29.93 in 10.0 mi NW 13.8 mph 23.0 mph N/A   Scattered Clouds
2:54 PM 71.1 °F 50.0 °F 47% 29.92 in 10.0 mi NW 15.0 mph 23.0 mph N/A   Mostly Cloudy
3:54 PM 71.1 °F 50.0 °F 47% 29.93 in 10.0 mi NNW 9.2 mph 19.6 mph N/A   Clear
4:54 PM 73.0 °F 51.1 °F 46% 29.94 in 10.0 mi WNW 12.7 mph 21.9 mph N/A   Partly Cloudy
5:54 PM 72.0 °F 51.1 °F 48% 29.94 in 10.0 mi NW 8.1 mph - N/A   Clear
6:54 PM 70.0 °F 50.0 °F 49% 29.96 in 10.0 mi NW 8.1 mph 16.1 mph N/A   Clear
7:54 PM 66.9 °F 51.1 °F 57% 29.98 in 10.0 mi NNW 4.6 mph - N/A   Clear
8:54 PM 63.0 °F 52.0 °F 67% 30.01 in 10.0 mi Calm Calm - N/A   Clear
9:54 PM 57.0 °F 54.0 °F 89% 30.04 in 10.0 mi Calm Calm - N/A   Clear
10:54 PM 57.0 °F 53.1 °F 87% 30.06 in 10.0 mi Calm Calm - N/A   Clear
11:54 PM 55.9 °F 53.1 °F 90% 30.08 in 10.0 mi Calm Calm - N/A   Clear